Meteo Giornale » Osservazioni meteo Italia » Pescara

ore: 12:50 - Osservazioni Meteo Pescara
Lat. 42° 26' N Lon. 14° 12' E Alt. 10 metri s.l.m.

molto_nuvoloso Europe/Rome

20 °C

Molto Nuvoloso

Temp. 24 Ore

17 °C

22 °C

Nord

13 Km/h

Dew point 17 °C

Umidità 82 %

Visibilità  10 Km

Il sole sorge alle ore 07:18

Il sole tramonta alle ore 18:17

Data e Ora Cielo e Fenomeni T °C DP °C Um. % Pres. hPa Vis. km Vento km/h
Oggi h: 12:50 molto_nuvoloso Molto Nuvoloso 20 17 82 1016 10 N 13
Oggi h: 11:50 molto_nuvoloso Molto Nuvoloso 20 18 88 1016 10 N/NE 14.8
Oggi h: 10:50 molto_nuvoloso Molto Nuvoloso 20 18 88 1016 3 N/NE 14.8
Oggi h: 10:00 foschia Foschia 17 15 88 1017 4 N 1.8
Oggi h: 09:50 molto_nuvoloso Molto Nuvoloso 20 18 88 1016 10 N 5.5
Oggi h: 08:50 foschia Foschia 20 18 88 1016 4 N 3.7
Oggi h: 07:50 foschia Foschia 19 18 93 1016 4 N 11.1
Oggi h: 06:50 coperto Coperto 19 18 93 1015 7 N 9.3
Oggi h: 06:06 foschia Foschia 18 18 100 1015 5 N 1.8
Oggi h: 05:50 foschia Foschia 18 18 100 1015 3 N 3.7
Oggi h: 05:10 nebbia Banco di Nebbia 18 18 100 1015 1 N 1.8
Oggi h: 05:05 nebbia Banco di Nebbia 18 18 100 1016 2 N 3.7
Oggi h: 04:53 nebbia Nebbia 18 18 100 1015 0.6 N 1.8
Oggi h: 04:50 foschia Foschia 18 18 100 1015 2 N 1.8
Oggi h: 04:01 coperto_pioggia Pioggia Debole Foschia 19 18 93 1016 5 N 1.8
Oggi h: 03:50 foschia Foschia 19 18 93 1016 5 N 1.8
Oggi h: 02:50 foschia Foschia 19 18 93 1016 5 N 3.7
Oggi h: 01:50 molto_nuvoloso Molto Nuvoloso 19 19 100 1017 6 N 5.5
Oggi h: 00:50 coperto Coperto 19 18 93 1017 7 N 3.7
Ieri h: 23:50 molto_nuvoloso Molto Nuvoloso 19 18 93 1017 6 N 1.8
Ieri h: 22:50 molto_nuvoloso Molto Nuvoloso 19 18 93 1017 10 N 3.7
Ieri h: 21:50 molto_nuvoloso Molto Nuvoloso 19 18 93 1017 10 N 1.8
Ieri h: 20:50 nuvoloso Nuvoloso 19 18 93 1017 10 N 1.8
Ieri h: 19:50 nuvoloso Nuvoloso 20 18 88 1017 10 N 1.8
Ieri h: 18:50 molto_nuvoloso Molto Nuvoloso 20 18 88 1016 10 N 5.5
Ieri h: 16:50 nuvoloso Nuvoloso 21 18 82 1016 10 NE 13
Ieri h: 14:50 poco_nuvoloso Poco Nuvoloso 22 18 78 1016 10 NE 13